This is the latest recevied weather packets stored in our database for station/object SM4JDW-10. If no packets are shown the sender has not sent any weather packets the latest 10 day(s).
| Time | Temp. | Humidity | Pressure | Rain* | Wind** | Luminosity | Snow |
|---|---|---|---|---|---|---|---|
| 1788412088 | 9.44° C | 73% | 1002 hPa | - | - | - | - |
| 1788410288 | 9.44° C | 74% | 1002.1 hPa | - | - | - | - |
| 1788408488 | 9.44° C | 73% | 1002.1 hPa | - | - | - | - |
| 1788406687 | 9.44° C | 73% | 1002.1 hPa | - | - | - | - |
| 1788404887 | 10° C | 72% | 1002 hPa | - | - | - | - |
| 1788403087 | 10° C | 72% | 1002.1 hPa | - | - | - | - |
| 1788401287 | 10° C | 73% | 1002.3 hPa | - | - | - | - |
| 1788399487 | 10.56° C | 72% | 1002.5 hPa | - | - | - | - |
| 1788397687 | 10.56° C | 71% | 1002.5 hPa | - | - | - | - |
| 1788395887 | 11.11° C | 69% | 1002.7 hPa | - | - | - | - |
| 1788394087 | 11.67° C | 67% | 1002.8 hPa | - | - | - | - |
| 1788392287 | 11.67° C | 64% | 1003 hPa | - | - | - | - |
| 1788388687 | 12.22° C | 66% | 1002.8 hPa | - | - | - | - |
| 1788386887 | 12.78° C | 63% | 1002.9 hPa | - | - | - | - |
| 1788385087 | 12.78° C | 63% | 1002.9 hPa | - | - | - | - |
| 1788383286 | 12.78° C | 61% | 1002.9 hPa | - | - | - | - |
| 1788381487 | 13.33° C | 60% | 1002.9 hPa | - | - | - | - |
| 1788379686 | 13.89° C | 59% | 1003.1 hPa | - | - | - | - |
| 1788377886 | 14.44° C | 58% | 1003.1 hPa | - | - | - | - |
| 1788376086 | 15° C | 56% | 1003 hPa | - | - | - | - |
| 1788374286 | 15.56° C | 54% | 1002.9 hPa | - | - | - | - |
| 1788372486 | 16.11° C | 53% | 1002.9 hPa | - | - | - | - |
| 1788370686 | 16.67° C | 50% | 1002.7 hPa | - | - | - | - |
| 1788368886 | 17.22° C | 49% | 1002.6 hPa | - | - | - | - |
| 1788367086 | 17.78° C | 47% | 1002.5 hPa | - | - | - | - |
* Rain since midnight (hover to see other rain measurements)
** Current wind speed in m/s (hover to see current wind gust speed)